Flag for Malaysia Weather past 2 weeks in Kuching, Malaysia

Now
84 °F

Broken clouds.


Feels Like: 91 °F
Forecast: 78 / 95 °F
Wind: 8 mph from South

Location: Kuching Airport

Current Time: Aug 5, 2015 at 10:57:00 AM

Latest Report: Aug 5, 2015 at 10:30 AM


Visibility: 4 mi

Pressure: 29.83 "Hg

Humidity: 70%

Dew point: 73 °F

Location of KuchingLocation

Historic Weather in Kuching — Graph

°F

Kuching temperature yesterday

Maximum temperature yesterday: 90 °F (at 1:30 PM)
Minimum temperature yesterday: 77 °F (at 3:00 AM)
Average temperature yesterday: 82 °F

Past Weeks' High & Low Weather Summary

 TemperatureHumidityPressure
High93 °F (Jul 23, 4:00 PM)100% (Jul 22, 7:00 PM)30.01 "Hg (Jul 22, 7:00 PM)
Low72 °F (Jul 23, 4:00 AM)52% (Jul 21, 4:30 PM)29.77 "Hg (Jul 29, 4:30 PM)
Average80 °F84%29.87 "Hg
* Reported Jul 21 10:00 AM — Aug 5 10:00 AM, Kuching, Weather by CustomWeather, © 2015

Note: Actual official high and low records may vary slightly from our data, if they occured in-between our weather recording intervals... More about our weather records

Advertising

Kuching weather history for previous 24 hours

 ConditionsComfort  
Time TempWeatherWind HumidityBarometerVisibility
10:00 AM
Wed, Aug 5
82 °FBroken clouds.6 mph74%29.86 "Hg4 mi
9:30 AM81 °FBroken clouds.5 mph79%29.86 "Hg4 mi
9:00 AM77 °FBroken clouds.5 mph94%29.86 "Hg4 mi
8:30 AM77 °FBroken clouds.5 mph89%29.86 "Hg5 mi
8:00 AM75 °FBroken clouds.5 mph94%29.83 "Hg4 mi
7:30 AM75 °FBroken clouds.3 mph94%29.83 "Hg4 mi
7:00 AM75 °FBroken clouds.5 mph94%29.83 "Hg4 mi
6:30 AM73 °FPartly cloudy.5 mph100%29.83 "Hg4 mi
6:00 AM75 °FPartly cloudy.3 mph94%29.83 "HgN/A
5:30 AM75 °FPartly cloudy.1 mph94%29.83 "HgN/A
5:00 AM75 °FPartly cloudy.2 mph94%29.83 "HgN/A
4:30 AM75 °FPartly cloudy.5 mph94%29.83 "HgN/A
4:00 AM75 °FPartly cloudy.5 mph94%29.83 "HgN/A
3:30 AM75 °FPartly cloudy.5 mph100%29.83 "HgN/A
3:00 AM75 °FPartly cloudy.1 mph100%29.83 "HgN/A
2:30 AM75 °FPartly cloudy.1 mph100%29.86 "HgN/A
2:00 AM75 °FPartly cloudy.3 mph100%29.86 "HgN/A
1:30 AM77 °FPartly cloudy.5 mph94%29.86 "HgN/A
1:00 AM77 °FPartly cloudy.6 mph94%29.86 "HgN/A
12:30 AM79 °FPartly cloudy.3 mph89%29.89 "HgN/A
12:00 AM79 °FPartly cloudy.5 mph89%29.89 "HgN/A
11:30 PM
Tue, Aug 4
79 °FPartly cloudy.3 mph89%29.89 "HgN/A
11:00 PM81 °FPartly cloudy.2 mph89%29.86 "HgN/A
10:30 PM81 °FLight rain. Partly cloudy.5 mph89%29.89 "Hg5 mi
10:00 PM82 °FLight rain. Partly cloudy.3 mph84%29.86 "Hg5 mi
9:30 PM82 °FPartly cloudy.2 mph84%29.86 "Hg5 mi
9:00 PM82 °FPartly cloudy.3 mph84%29.86 "Hg5 mi
8:30 PM82 °FPartly cloudy.3 mph84%29.86 "Hg5 mi
8:00 PM84 °FPartly cloudy.5 mph74%29.83 "Hg5 mi
7:30 PM84 °FPartly cloudy.6 mph79%29.83 "Hg5 mi
7:00 PM84 °FPartly cloudy.6 mph79%29.80 "Hg5 mi
6:30 PM86 °FBroken clouds.5 mph75%29.80 "Hg5 mi
6:00 PM88 °FBroken clouds.3 mph66%29.77 "Hg4 mi
5:30 PM90 °FBroken clouds.3 mph63%29.77 "Hg4 mi
5:00 PM90 °FBroken clouds.5 mph59%29.77 "Hg4 mi
4:30 PM90 °FBroken clouds.6 mph59%29.77 "Hg4 mi
4:00 PM90 °FBroken clouds.5 mph63%29.77 "Hg4 mi
3:30 PM88 °FBroken clouds.6 mph66%29.77 "Hg4 mi
3:00 PM88 °FBroken clouds.8 mph70%29.77 "Hg4 mi
2:30 PM90 °FBroken clouds.8 mph63%29.77 "Hg4 mi
2:00 PM90 °FBroken clouds.6 mph63%29.80 "Hg4 mi
1:30 PM90 °FBroken clouds.6 mph59%29.80 "Hg4 mi
1:00 PM88 °FBroken clouds.3 mph66%29.83 "Hg4 mi
12:30 PM86 °FBroken clouds.2 mph70%29.83 "Hg4 mi
12:00 PM86 °FBroken clouds.5 mph70%29.86 "Hg4 mi
11:30 AM86 °FPartly sunny.2 mph70%29.86 "Hg4 mi
11:00 AM84 °FPartly sunny.3 mph74%29.86 "Hg4 mi
10:30 AM82 °FPartly sunny.7 mph79%29.86 "Hg4 mi
10:00 AM82 °FPartly sunny.3 mph79%29.86 "Hg4 mi
Weather by CustomWeather, © 2015

See weather overviewHow to use our weather pages